| time (UTC) | temp C | wind direction | speed KPH | gust KPH | rain 1hr cm | rain 24hr cm | rain mn cm | humidity % | barometer mb |
| 20260504033504 | 10 | 317 | 1.6 | 4.8 | 0.00 | 0.00 | 0.00 | 46 | 1019.1 |
| 20260504033002 | 10 | 131 | 0.0 | 6.4 | 0.00 | 0.00 | 0.00 | 46 | 1019.0 |
| 20260504032503 | 10 | 261 | 1.6 | 6.4 | 0.00 | 0.00 | 0.00 | 46 | 1019.1 |
| 20260504032003 | 10 | 224 | 0.0 | 3.2 | 0.00 | 0.00 | 0.00 | 45 | 1018.9 |
| 20260504031509 | 10 | 61 | 0.0 | 3.2 | 0.00 | 0.00 | 0.00 | 46 | 1019.0 |
| 20260504031001 | 10 | 233 | 0.0 | 3.2 | 0.00 | 0.00 | 0.00 | 46 | 1019.0 |
| 20260504030502 | 10 | 1 | 0.0 | 3.2 | 0.00 | 0.00 | 0.00 | 45 | 1019.0 |
| 20260504030002 | 10 | 216 | 0.0 | 3.2 | 0.00 | 0.00 | 0.00 | 45 | 1019.1 |
| 20260504025502 | 10 | 287 | 1.6 | 3.2 | 0.00 | 0.00 | 0.00 | 46 | 1019.0 |
| 20260504025101 | 10 | 261 | 0.0 | 3.2 | 0.00 | 0.00 | 0.00 | 46 | 1019.1 |
| 20260504024600 | 10 | 86 | 0.0 | 3.2 | 0.00 | 0.00 | 0.00 | 46 | 1018.9 |
| 20260504024502 | 10 | 44 | 0.0 | 3.2 | 0.00 | 0.00 | 0.00 | 45 | 1018.9 |
| 20260504024100 | 10 | 216 | 0.0 | 3.2 | 0.00 | 0.00 | 0.00 | 46 | 1019.0 |
| 20260504023600 | 10 | 44 | 0.0 | 3.2 | 0.00 | 0.00 | 0.00 | 46 | 1018.9 |
| 20260504023100 | 10 | 304 | 0.0 | 3.2 | 0.00 | 0.00 | 0.00 | 46 | 1018.9 |
| 20260504022604 | 10 | 261 | 0.0 | 3.2 | 0.00 | 0.00 | 0.00 | 45 | 1018.9 |
| 20260504022102 | 10 | 304 | 0.0 | 3.2 | 0.00 | 0.00 | 0.00 | 45 | 1019.0 |
| 20260504021701 | 10 | 1 | 0.0 | 3.2 | 0.00 | 0.00 | 0.00 | 45 | 1018.8 |
| 20260504021059 | 10 | 304 | 0.0 | 3.2 | 0.00 | 0.00 | 0.00 | 47 | 1018.8 |
| 20260504020559 | 10 | 304 | 0.0 | 3.2 | 0.00 | 0.00 | 0.00 | 47 | 1018.8 |
| 20260504020106 | 10 | 44 | 0.0 | 3.2 | 0.00 | 0.00 | 0.00 | 47 | 1018.8 |
| 20260504015558 | 10 | 1 | 0.0 | 3.2 | 0.00 | 0.00 | 0.00 | 47 | 1018.8 |
| 20260504015059 | 10 | 44 | 0.0 | 3.2 | 0.00 | 0.00 | 0.00 | 48 | 1018.6 |
| 20260504014606 | 10 | 238 | 0.0 | 3.2 | 0.00 | 0.00 | 0.00 | 48 | 1018.6 |
| 20260504014057 | 10 | 44 | 0.0 | 3.2 | 0.00 | 0.00 | 0.00 | 48 | 1018.6 |
| 20260504013557 | 10 | 44 | 0.0 | 3.2 | 0.00 | 0.00 | 0.00 | 48 | 1018.6 |
| 20260504013058 | 10 | 147 | 0.0 | 3.2 | 0.00 | 0.00 | 0.00 | 46 | 1018.5 |
| 20260504012557 | 10 | 243 | 0.0 | 3.2 | 0.00 | 0.00 | 0.00 | 47 | 1018.6 |
| 20260504012057 | 10 | 172 | 0.0 | 3.2 | 0.00 | 0.00 | 0.00 | 48 | 1018.5 |
| 20260504011557 | 10 | 70 | 0.0 | 4.8 | 0.00 | 0.00 | 0.00 | 47 | 1018.4 |
| 20260504011058 | 10 | 1 | 0.0 | 4.8 | 0.00 | 0.00 | 0.00 | 46 | 1018.4 |
| 20260504010556 | 10 | 304 | 0.0 | 3.2 | 0.00 | 0.00 | 0.00 | 46 | 1018.4 |
| 20260504010101 | 10 | 1 | 0.0 | 3.2 | 0.00 | 0.00 | 0.00 | 45 | 1018.4 |
| 20260504005556 | 10 | 15 | 0.0 | 3.2 | 0.00 | 0.00 | 0.00 | 45 | 1018.4 |
| 20260504005056 | 10 | 27 | 0.0 | 4.8 | 0.00 | 0.00 | 0.00 | 45 | 1018.3 |
| 20260504004556 | 10 | 61 | 0.0 | 4.8 | 0.00 | 0.00 | 0.00 | 45 | 1018.4 |
| 20260504004056 | 11 | 1 | 0.0 | 4.8 | 0.00 | 0.00 | 0.00 | 45 | 1018.3 |
| 20260504003555 | 11 | 27 | 0.0 | 3.2 | 0.00 | 0.00 | 0.00 | 45 | 1018.3 |
| 20260504003101 | 11 | 131 | 0.0 | 3.2 | 0.00 | 0.00 | 0.00 | 45 | 1018.1 |
| 20260504002555 | 11 | 1 | 0.0 | 4.8 | 0.00 | 0.00 | 0.00 | 45 | 1018.2 |
| 20260504002055 | 11 | 304 | 0.0 | 4.8 | 0.00 | 0.00 | 0.00 | 43 | 1018.1 |
| 20260504001600 | 11 | 326 | 0.0 | 4.8 | 0.00 | 0.00 | 0.00 | 42 | 1018.0 |
| 20260504001055 | 12 | 1 | 0.0 | 4.8 | 0.00 | 0.00 | 0.00 | 42 | 1018.1 |
| 20260504000555 | 12 | 172 | 1.6 | 4.8 | 0.00 | 0.00 | 0.00 | 41 | 1018.1 |
| 20260504000100 | 12 | 245 | 0.0 | 4.8 | 0.00 | 0.00 | 0.00 | 42 | 1018.2 |
| 20260503235554 | 12 | 295 | 1.6 | 4.8 | 0.00 | 0.00 | 0.00 | 40 | 1018.2 |
| 20260503235054 | 12 | 27 | 1.6 | 9.7 | 0.00 | 0.00 | 0.00 | 39 | 1018.1 |
| 20260503234554 | 13 | 274 | 3.2 | 9.7 | 0.00 | 0.00 | 0.00 | 38 | 1018.1 |
| 20260503234054 | 13 | 245 | 1.6 | 8.0 | 0.00 | 0.00 | 0.00 | 39 | 1018.2 |
| 20260503233555 | 13 | 195 | 1.6 | 11.3 | 0.00 | 0.00 | 0.00 | 37 | 1018.1 |
| 20260503233053 | 14 | 210 | 1.6 | 11.3 | 0.00 | 0.00 | 0.00 | 37 | 1018.2 |
| 20260503232555 | 14 | 122 | 0.0 | 9.7 | 0.00 | 0.00 | 0.00 | 38 | 1018.2 |
| 20260503232054 | 14 | 254 | 3.2 | 8.0 | 0.00 | 0.00 | 0.00 | 35 | 1018.1 |
| 20260503231552 | 15 | 297 | 3.2 | 9.7 | 0.00 | 0.00 | 0.00 | 36 | 1018.1 |
| 20260503231051 | 15 | 237 | 3.2 | 9.7 | 0.00 | 0.00 | 0.00 | 37 | 1018.1 |
| 20260503230552 | 15 | 242 | 1.6 | 9.7 | 0.00 | 0.00 | 0.00 | 37 | 1017.9 |
| 20260503230109 | 15 | 42 | 1.6 | 8.0 | 0.00 | 0.00 | 0.00 | 37 | 1017.9 |
| 20260503225551 | 15 | 207 | 3.2 | 11.3 | 0.00 | 0.00 | 0.00 | 34 | 1017.9 |
| 20260503225051 | 15 | 321 | 4.8 | 11.3 | 0.00 | 0.00 | 0.00 | 33 | 1017.8 |
| 20260503224551 | 15 | 335 | 3.2 | 9.7 | 0.00 | 0.00 | 0.00 | 36 | 1017.9 |
| 20260503224051 | 15 | 314 | 3.2 | 9.7 | 0.00 | 0.00 | 0.00 | 33 | 1017.8 |
| 20260503223550 | 15 | 337 | 3.2 | 9.7 | 0.00 | 0.00 | 0.00 | 34 | 1017.8 |
| 20260503223107 | 15 | 260 | 4.8 | 11.3 | 0.00 | 0.00 | 0.00 | 33 | 1017.9 |
| 20260503222550 | 15 | 333 | 3.2 | 11.3 | 0.00 | 0.00 | 0.00 | 34 | 1017.9 |
| 20260503222050 | 15 | 249 | 3.2 | 11.3 | 0.00 | 0.00 | 0.00 | 36 | 1018.0 |
| 20260503221553 | 15 | 155 | 1.6 | 11.3 | 0.00 | 0.00 | 0.00 | 35 | 1018.1 |
| 20260503221050 | 15 | 86 | 3.2 | 8.0 | 0.00 | 0.00 | 0.00 | 37 | 1018.1 |
| 20260503220549 | 15 | 224 | 3.2 | 17.7 | 0.00 | 0.00 | 0.00 | 34 | 1017.9 |
| 20260503220052 | 15 | 165 | 4.8 | 17.7 | 0.00 | 0.00 | 0.00 | 32 | 1018.1 |
| 20260503215549 | 15 | 115 | 3.2 | 11.3 | 0.00 | 0.00 | 0.00 | 35 | 1018.1 |
| 20260503215049 | 16 | 127 | 3.2 | 11.3 | 0.00 | 0.00 | 0.00 | 36 | 1018.0 |
| 20260503214555 | 15 | 215 | 3.2 | 11.3 | 0.00 | 0.00 | 0.00 | 33 | 1017.9 |
| 20260503214049 | 16 | 155 | 1.6 | 9.7 | 0.00 | 0.00 | 0.00 | 33 | 1017.9 |
| 20260503213550 | 16 | 341 | 3.2 | 11.3 | 0.00 | 0.00 | 0.00 | 35 | 1018.0 |
| 20260503213049 | 16 | 206 | 3.2 | 12.9 | 0.00 | 0.00 | 0.00 | 35 | 1018.1 |
| 20260503212548 | 16 | 245 | 3.2 | 12.9 | 0.00 | 0.00 | 0.00 | 38 | 1018.2 |
| 20260503212047 | 15 | 283 | 1.6 | 12.9 | 0.00 | 0.00 | 0.00 | 38 | 1018.1 |
| 20260503211546 | 15 | 264 | 3.2 | 12.9 | 0.00 | 0.00 | 0.00 | 35 | 1018.2 |
| 20260503211046 | 15 | 321 | 3.2 | 12.9 | 0.00 | 0.00 | 0.00 | 36 | 1018.1 |
| 20260503210545 | 15 | 276 | 8.0 | 12.9 | 0.00 | 0.00 | 0.00 | 33 | 1018.2 |
| 20260503210044 | 15 | 334 | 6.4 | 12.9 | 0.00 | 0.00 | 0.00 | 35 | 1018.2 |
| 20260503205543 | 15 | 289 | 3.2 | 14.5 | 0.00 | 0.00 | 0.00 | 33 | 1018.3 |
| 20260503205043 | 15 | 74 | 6.4 | 14.5 | 0.00 | 0.00 | 0.00 | 34 | 1018.3 |
| 20260503204545 | 14 | 272 | 6.4 | 17.7 | 0.00 | 0.00 | 0.00 | 31 | 1018.3 |
| 20260503204042 | 15 | 293 | 4.8 | 17.7 | 0.00 | 0.00 | 0.00 | 31 | 1018.3 |
| 20260503203543 | 15 | 337 | 4.8 | 17.7 | 0.00 | 0.00 | 0.00 | 34 | 1018.5 |
| 20260503203044 | 15 | 333 | 8.0 | 17.7 | 0.00 | 0.00 | 0.00 | 37 | 1018.5 |
| 20260503202546 | 14 | 272 | 4.8 | 24.1 | 0.00 | 0.00 | 0.00 | 33 | 1018.4 |
| 20260503202042 | 15 | 206 | 11.3 | 24.1 | 0.00 | 0.00 | 0.00 | 29 | 1018.6 |
| 20260503201545 | 15 | 235 | 6.4 | 16.1 | 0.00 | 0.00 | 0.00 | 33 | 1018.6 |
| 20260503201041 | 15 | 191 | 4.8 | 16.1 | 0.00 | 0.00 | 0.00 | 33 | 1018.7 |
| 20260503200540 | 15 | 314 | 8.0 | 16.1 | 0.00 | 0.00 | 0.00 | 35 | 1018.8 |
| 20260503200040 | 15 | 289 | 6.4 | 17.7 | 0.00 | 0.00 | 0.00 | 39 | 1018.9 |
| 20260503195538 | 14 | 238 | 3.2 | 17.7 | 0.00 | 0.00 | 0.00 | 35 | 1018.9 |
| 20260503195038 | 14 | 309 | 3.2 | 19.3 | 0.00 | 0.00 | 0.00 | 39 | 1019.0 |
| 20260503194545 | 14 | 162 | 8.0 | 19.3 | 0.00 | 0.00 | 0.00 | 37 | 1019.1 |
| 20260503194039 | 13 | 244 | 4.8 | 19.3 | 0.00 | 0.00 | 0.00 | 35 | 1019.1 |
| 20260503193536 | 13 | 326 | 9.7 | 16.1 | 0.00 | 0.00 | 0.00 | 34 | 1019.1 |
| 20260503193037 | 14 | 311 | 6.4 | 16.1 | 0.00 | 0.00 | 0.00 | 35 | 1019.3 |
| 20260503192536 | 14 | 184 | 4.8 | 16.1 | 0.00 | 0.00 | 0.00 | 43 | 1019.2 |
| 20260503192035 | 14 | 101 | 1.6 | 17.7 | 0.00 | 0.00 | 0.00 | 39 | 1019.2 |
| 20260503191535 | 13 | 276 | 8.0 | 22.5 | 0.00 | 0.00 | 0.00 | 38 | 1019.2 |
| 20260503191035 | 13 | 286 | 6.4 | 16.1 | 0.00 | 0.00 | 0.00 | 36 | 1019.2 |
| 20260503190535 | 13 | 284 | 6.4 | 16.1 | 0.00 | 0.00 | 0.00 | 39 | 1019.5 |
| 20260503190041 | 13 | 260 | 3.2 | 12.9 | 0.00 | 0.00 | 0.00 | 37 | 1019.4 |
| 20260503185533 | 13 | 316 | 4.8 | 12.9 | 0.00 | 0.00 | 0.00 | 38 | 1019.6 |
| 20260503185034 | 13 | 1 | 3.2 | 16.1 | 0.00 | 0.00 | 0.00 | 37 | 1019.7 |
| 20260503184532 | 13 | 226 | 9.7 | 16.1 | 0.00 | 0.00 | 0.00 | 40 | 1019.8 |
| 20260503184032 | 13 | 323 | 9.7 | 16.1 | 0.00 | 0.00 | 0.00 | 39 | 1019.9 |
| 20260503183530 | 13 | 19 | 4.8 | 14.5 | 0.00 | 0.00 | 0.00 | 43 | 1020.0 |
| 20260503183038 | 13 | 1 | 1.6 | 16.1 | 0.00 | 0.00 | 0.00 | 41 | 1020.0 |
| 20260503182529 | 13 | 309 | 6.4 | 20.9 | 0.00 | 0.00 | 0.00 | 43 | 1020.0 |
| 20260503182030 | 12 | 238 | 6.4 | 20.9 | 0.00 | 0.00 | 0.00 | 41 | 1020.0 |
| 20260503181549 | 12 | 321 | 6.4 | 20.9 | 0.00 | 0.00 | 0.00 | 43 | 1020.1 |
| 20260503181028 | 12 | 260 | 6.4 | 20.9 | 0.00 | 0.00 | 0.00 | 45 | 1020.2 |
| 20260503180530 | 12 | 19 | 1.6 | 14.5 | 0.00 | 0.00 | 0.00 | 41 | 1020.1 |
| 20260503180040 | 12 | 238 | 8.0 | 17.7 | 0.00 | 0.00 | 0.00 | 38 | 1020.3 |
| 20260503175531 | 12 | 268 | 4.8 | 17.7 | 0.00 | 0.00 | 0.00 | 41 | 1020.5 |
| 20260503175027 | 12 | 54 | 1.6 | 12.9 | 0.00 | 0.00 | 0.00 | 48 | 1020.4 |
| 20260503174525 | 11 | 286 | 4.8 | 14.5 | 0.00 | 0.00 | 0.00 | 44 | 1020.3 |
| 20260503174027 | 11 | 304 | 6.4 | 17.7 | 0.00 | 0.00 | 0.00 | 42 | 1020.4 |
| 20260503173524 | 12 | 337 | 4.8 | 20.9 | 0.00 | 0.00 | 0.00 | 45 | 1020.4 |
| 20260503173024 | 12 | 331 | 8.0 | 16.1 | 0.00 | 0.00 | 0.00 | 43 | 1020.3 |
| 20260503172522 | 12 | 321 | 1.6 | 9.7 | 0.00 | 0.00 | 0.00 | 50 | 1020.4 |
| 20260503172022 | 11 | 300 | 1.6 | 12.9 | 0.00 | 0.00 | 0.00 | 56 | 1020.4 |
| 20260503171525 | 11 | 215 | 3.2 | 12.9 | 0.00 | 0.00 | 0.00 | 44 | 1020.5 |
| 20260503171021 | 11 | 345 | 6.4 | 11.3 | 0.00 | 0.00 | 0.00 | 47 | 1020.4 |
| 20260503170522 | 11 | 286 | 3.2 | 11.3 | 0.00 | 0.00 | 0.00 | 49 | 1020.6 |
| 20260503150600 | 7 | 224 | 8.0 | 14.5 | 0.00 | 0.00 | 0.00 | 50 | 1022.2 |
| 20260503131035 | 5 | 326 | 12.9 | 25.7 | 0.00 | 0.00 | 0.00 | 56 | 1021.8 |
| 20260503130535 | 5 | 1 | 12.9 | 25.7 | 0.00 | 0.00 | 0.00 | 59 | 1021.8 |
| 20260503110503 | 2 | 334 | 3.2 | 9.7 | 0.00 | 0.00 | 0.00 | 66 | 1020.4 |
| 20260503081531 | 3 | 233 | 1.6 | 8.0 | 0.00 | 0.00 | 0.00 | 65 | 1017.9 |
| 20260503081033 | 3 | 256 | 4.8 | 9.7 | 0.00 | 0.00 | 0.00 | 65 | 1017.9 |
| 20260503080529 | 3 | 321 | 1.6 | 12.9 | 0.00 | 0.00 | 0.00 | 64 | 1017.7 |
| 20260503072524 | 4 | 278 | 6.4 | 12.9 | 0.00 | 0.00 | 0.00 | 61 | 1017.5 |
| 20260503072027 | 4 | 298 | 4.8 | 16.1 | 0.00 | 0.00 | 0.00 | 61 | 1017.4 |
| 20260503071522 | 4 | 332 | 8.0 | 16.1 | 0.00 | 0.00 | 0.00 | 61 | 1017.4 |
| 20260503071022 | 4 | 291 | 3.2 | 11.3 | 0.00 | 0.00 | 0.00 | 63 | 1017.3 |
| 20260503070525 | 4 | 317 | 4.8 | 9.7 | 0.00 | 0.00 | 0.00 | 64 | 1017.4 |
| 20260503055014 | 5 | 300 | 4.8 | 11.3 | 0.00 | 0.00 | 0.00 | 61 | 1017.5 |
| 20260503054518 | 5 | 319 | 3.2 | 11.3 | 0.00 | 0.00 | 0.00 | 61 | 1017.5 |
| 20260503054012 | 5 | 305 | 3.2 | 11.3 | 0.00 | 0.00 | 0.00 | 61 | 1017.5 |
| 20260503053512 | 5 | 1 | 3.2 | 11.3 | 0.00 | 0.00 | 0.00 | 61 | 1017.5 |
| 20260503053016 | 5 | 301 | 6.4 | 11.3 | 0.00 | 0.00 | 0.00 | 61 | 1017.5 |
| 20260503052511 | 5 | 300 | 6.4 | 11.3 | 0.00 | 0.00 | 0.00 | 61 | 1017.4 |
| 20260503052011 | 5 | 321 | 4.8 | 9.7 | 0.00 | 0.00 | 0.00 | 61 | 1017.4 |
| 20260503051510 | 5 | 331 | 3.2 | 9.7 | 0.00 | 0.00 | 0.00 | 61 | 1017.3 |
| 20260503051009 | 5 | 1 | 4.8 | 9.7 | 0.00 | 0.00 | 0.00 | 61 | 1017.3 |
| 20260503050509 | 5 | 341 | 4.8 | 8.0 | 0.00 | 0.00 | 0.00 | 61 | 1017.3 |
| 20260503050008 | 5 | 338 | 4.8 | 9.7 | 0.00 | 0.00 | 0.00 | 61 | 1017.3 |
| 20260503045513 | 5 | 11 | 3.2 | 11.3 | 0.00 | 0.00 | 0.00 | 60 | 1017.2 |
| 20260503045007 | 5 | 6 | 6.4 | 14.5 | 0.00 | 0.00 | 0.00 | 61 | 1017.2 |
| 20260503044507 | 5 | 344 | 6.4 | 14.5 | 0.00 | 0.00 | 0.00 | 60 | 1017.1 |
| 20260503044005 | 5 | 340 | 4.8 | 16.1 | 0.00 | 0.00 | 0.00 | 60 | 1017.2 |
| 20260503043504 | 5 | 329 | 6.4 | 16.1 | 0.00 | 0.00 | 0.00 | 60 | 1017.2 |
| 20260503043004 | 5 | 315 | 6.4 | 12.9 | 0.00 | 0.00 | 0.00 | 59 | 1017.1 |
| 20260503042502 | 5 | 319 | 3.2 | 9.7 | 0.00 | 0.00 | 0.00 | 59 | 1017.2 |
| 20260503042002 | 5 | 317 | 3.2 | 8.0 | 0.00 | 0.00 | 0.00 | 58 | 1017.1 |
| 20260503041502 | 5 | 329 | 4.8 | 9.7 | 0.00 | 0.00 | 0.00 | 58 | 1017.2 |
| 20260503041102 | 6 | 271 | 3.2 | 12.9 | 0.00 | 0.00 | 0.00 | 58 | 1017.2 |
| 20260503040559 | 6 | 325 | 6.4 | 12.9 | 0.00 | 0.00 | 0.00 | 58 | 1017.2 |
| 20260503040058 | 6 | 15 | 3.2 | 11.3 | 0.00 | 0.00 | 0.00 | 58 | 1017.2 |
| 20260503035602 | 6 | 313 | 4.8 | 12.9 | 0.00 | 0.00 | 0.00 | 57 | 1017.1 |
| 20260503035058 | 6 | 310 | 4.8 | 12.9 | 0.00 | 0.00 | 0.00 | 57 | 1017.2 |
| 20260503034557 | 6 | 308 | 4.8 | 9.7 | 0.00 | 0.00 | 0.00 | 57 | 1017.1 |
| 20260503034057 | 6 | 9 | 3.2 | 11.3 | 0.00 | 0.00 | 0.00 | 57 | 1017.2 |